Theta_e
291 291 290 290 290 290 290 289 288 287 286 286 285 285 284 284 283 282 281 280 280 279 278 278 278 278 278 277 277 277 277 276 276 276 276 276 276 276 276 276 275 275
291 291 290 290 290 290 290 290 288 287 286 286 285 285 284 283 283 282 281 280 279 279 278 278 278 277 277 277 277 277 276 276 276 276 276 276 275 275 275 275 275 275
291 291 290 290 290 290 290 289 288 287 286 286 285 285 284 284 283 282 281 280 279 279 278 278 277 277 277 277 276 276 276 276 275 275 275 275 275 275 275 275 275 274
291 291 291 290 290 290 290 289 288 287 286 286 285 285 284 284 283 282 281 280 279 278 278 277 277 277 277 276 276 276 276 275 275 275 275 275 275 274 274 274 274 274
291 291 291 290 290 290 290 289 287 287 286 286 285 285 284 284 283 282 281 280 279 278 277 277 277 277 276 276 276 276 275 275 275 275 274 274 274 274 274 274 274 274
291 291 291 290 290 290 290 289 287 287 286 286 285 285 284 283 282 282 281 280 279 278 277 277 277 276 276 276 275 275 275 275 274 274 274 274 274 273 273 273 273 273
291 291 291 290 290 290 289 289 287 287 286 286 285 285 284 283 282 282 281 280 279 278 277 277 276 276 276 275 275 275 275 274 274 274 274 273 273 273 273 273 272 272
292 291 291 290 290 290 290 289 287 287 286 286 285 285 284 283 282 281 281 280 278 278 277 277 276 276 275 275 275 274 274 274 274 273 273 273 273 273 272 272 272 272
292 291 291 290 290 290 290 289 288 287 286 286 285 284 284 283 282 281 280 280 278 278 277 276 276 276 275 275 275 274 274 274 273 273 273 272 272 272 272 272 272 272
292 291 291 290 290 290 290 289 288 287 286 286 285 284 283 283 282 281 280 279 278 277 277 276 276 275 275 275 275 274 274 273 273 273 272 272 271 271 271 271 272 272
292 291 291 290 290 290 290 289 288 287 286 286 285 284 283 282 281 281 280 279 278 277 277 276 276 275 275 275 274 274 273 273 273 272 272 271 271 271 271 271 271 271
292 292 291 291 290 291 290 289 288 287 286 286 285 284 283 282 281 280 280 279 278 277 276 276 275 275 275 274 274 273 273 272 272 272 271 271 271 271 271 271 271 271
292 292 291 291 291 290 289 289 288 286 286 285 285 284 282 281 281 280 279 278 277 277 276 276 275 275 274 274 273 273 272 272 272 271 271 271 271 270 270 270 271 271
292 292 292 291 291 290 289 288 287 286 285 285 284 283 282 281 280 279 278 278 277 276 276 275 275 275 274 274 273 273 272 272 271 271 271 270 270 270 270 270 270 270
292 292 291 291 290 290 289 288 287 286 285 284 284 283 281 280 279 278 278 277 276 276 276 275 275 274 274 273 273 272 272 271 271 270 270 270 270 270 270 270 270 270
291 291 291 291 290 290 289 288 286 285 284 284 283 282 280 280 279 278 277 277 276 276 275 275 275 274 274 273 272 272 271 271 270 270 270 270 270 270 270 270 269 269
290 290 291 291 290 289 288 287 286 285 284 283 282 281 280 279 278 278 277 276 276 275 275 275 274 274 273 272 272 271 271 270 270 270 269 269 269 269 269 269 268 268
290 290 290 290 289 288 287 286 285 284 283 282 281 280 279 278 278 277 276 276 275 275 275 274 274 273 272 272 271 271 270 270 270 269 269 268 268 268 268 267 267 267
289 289 289 289 287 287 286 285 284 283 282 281 280 279 279 278 277 276 276 275 275 274 274 274 273 272 272 271 271 270 270 270 269 269 268 267 267 267 267 267 267 267
287 287 287 287 286 285 285 284 283 282 281 280 279 279 278 277 276 276 275 275 274 274 273 273 272 271 271 271 270 270 270 270 269 268 267 267 266 266 267 266 266 266
286 286 286 285 284 284 283 282 281 281 280 279 279 278 277 276 276 275 274 274 274 273 273 272 271 271 271 270 270 270 270 269 268 267 267 267 267 267 267 266 266 266
285 285 284 284 283 282 281 281 280 280 279 279 278 277 276 275 275 274 274 274 273 272 272 271 271 270 270 270 270 270 269 268 268 268 267 267 267 267 267 267 267 266
284 283 282 282 281 281 281 280 280 279 279 278 277 276 275 275 275 274 273 273 272 271 271 271 270 270 270 270 269 269 268 268 268 268 268 268 268 268 268 267 267 266
282 281 281 281 281 280 280 280 279 278 278 277 276 275 275 275 274 273 273 272 271 271 270 270 270 270 269 269 269 269 268 267 267 267 267 267 267 267 267 267 267 266
281 281 281 280 280 280 279 279 278 277 276 276 275 275 274 274 273 272 272 271 271 270 270 270 269 269 269 269 268 268 268 267 267 267 267 267 267 267 267 267 266 266
281 281 280 280 280 279 278 278 277 276 275 275 274 274 273 273 272 272 271 271 270 270 269 269 269 269 269 268 268 268 267 267 267 266 266 267 266 266 266 266 266 265
Wind_Speed
34 32 31 30 29 29 29 28 26 25 24 24 24 23 22 21 21 20 20 20 19 19 19 19 20 20 21 21 21 21 22 22 22 22 22 22 23 23 23 23 23 23
36 34 32 32 31 31 30 29 27 26 25 24 24 23 22 21 21 21 20 20 20 19 19 20 20 20 21 21 21 22 22 22 22 23 23 23 23 23 23 23 23 24
37 36 34 33 32 32 31 29 28 27 25 24 24 23 22 21 21 21 20 20 20 20 20 20 20 20 21 21 21 21 21 22 22 23 23 23 23 24 24 24 24 24
39 37 35 34 33 33 32 31 30 28 26 25 24 23 23 22 22 21 21 20 20 20 20 20 20 20 20 21 21 22 22 22 22 22 23 23 23 24 24 24 24 24
39 38 36 36 35 35 34 33 31 28 26 25 24 24 23 22 22 21 21 21 20 20 20 20 20 20 20 21 22 23 23 23 23 23 23 23 23 24 24 24 25 25
41 40 38 38 37 36 36 34 31 28 27 26 25 25 24 23 22 22 21 21 20 21 21 21 21 21 21 22 22 23 24 24 24 24 25 25 24 24 24 24 24 24
42 41 40 39 38 38 37 35 32 30 28 27 26 26 25 24 23 22 21 21 21 21 22 21 21 21 21 22 23 24 24 25 26 26 26 27 26 26 25 25 25 25
43 42 41 40 39 39 38 36 33 31 29 28 28 27 26 24 23 23 22 22 22 22 22 22 22 22 22 23 23 24 25 26 27 27 28 28 28 28 27 26 27 27
44 44 43 41 41 40 39 37 34 32 31 30 29 28 26 25 24 24 23 22 22 23 23 22 22 22 22 23 24 25 26 27 28 28 29 29 30 29 28 27 28 28
46 45 44 44 43 41 40 37 35 34 32 31 30 28 27 26 25 25 24 23 23 23 23 23 23 23 23 24 25 26 28 28 29 29 30 31 30 29 28 28 29 29
47 46 46 45 44 42 40 38 36 35 33 32 30 29 28 26 26 25 25 24 24 23 23 23 23 24 24 25 26 27 28 29 29 30 31 31 30 29 29 29 30 30
48 48 47 46 44 42 40 38 37 36 34 32 31 29 28 27 27 26 26 25 24 23 23 23 24 25 26 26 27 28 28 29 30 30 31 30 30 31 31 30 30 30
50 49 48 46 44 41 39 39 38 37 34 32 31 30 29 28 28 27 26 25 24 24 24 24 25 26 27 27 28 28 29 29 30 30 30 30 31 32 32 31 30 29
51 49 48 46 44 41 40 40 39 37 34 32 31 30 30 29 28 27 26 25 25 24 24 25 26 27 27 28 28 29 29 30 30 30 30 31 33 34 33 31 29 28
52 50 48 47 45 42 41 41 39 36 34 32 31 31 30 28 27 27 26 26 26 25 25 26 27 28 28 28 28 29 29 29 29 30 31 33 34 33 31 29 27 27
52 51 49 48 45 42 41 40 38 35 33 32 31 30 29 28 27 27 27 27 27 26 27 27 28 28 28 28 29 29 29 29 30 31 32 34 34 32 30 27 26 26
51 51 49 48 45 43 41 39 36 34 33 31 30 29 28 28 28 28 28 28 27 27 28 28 29 28 28 28 28 28 28 29 31 32 33 33 31 29 27 26 25 26
49 49 48 47 45 42 39 37 34 33 32 31 30 29 28 28 29 29 28 28 28 28 29 29 29 28 28 28 28 27 28 29 31 32 31 29 27 26 26 25 25 25
46 47 46 45 42 38 35 34 33 32 30 29 28 27 28 28 29 29 28 28 28 29 29 29 28 28 27 27 27 28 28 30 31 31 29 27 25 25 25 25 24 25
42 42 41 39 36 33 31 31 30 29 28 27 27 27 28 29 29 29 28 28 28 28 28 29 28 27 27 27 28 29 29 30 30 28 26 25 25 26 27 27 27 27
36 35 33 32 30 29 28 27 27 26 26 27 27 27 28 28 28 28 28 28 28 28 28 28 27 26 27 27 28 29 30 29 27 27 27 28 28 29 30 30 29 28
29 28 27 26 25 25 24 24 25 26 26 26 26 27 27 27 28 28 28 27 27 27 28 28 27 26 27 28 29 30 29 28 28 29 30 31 31 31 31 31 30 30
21 21 21 21 21 22 23 24 25 25 25 25 25 26 27 27 28 27 27 26 26 26 27 28 27 27 28 29 30 30 29 28 29 30 31 31 30 30 29 29 28 27
16 17 18 20 22 23 24 25 25 25 24 24 24 25 26 27 26 26 26 25 26 26 27 28 28 29 29 31 31 29 28 28 29 29 30 30 29 28 28 27 26 25
16 18 20 22 24 24 25 25 24 24 23 23 24 25 25 25 25 25 25 25 26 27 28 29 30 30 31 31 30 28 26 27 28 29 29 29 28 27 26 25 24 23
19 21 23 24 25 25 24 24 23 23 23 23 24 24 25 25 24 24 25 25 26 27 28 30 31 31 31 30 28 26 25 26 27 28 28 28 27 26 25 24 23 23
Wind_Direction
253 253 255 258 261 264 266 269 273 278 284 289 293 298 303 307 308 305 299 295 291 287 284 281 280 280 281 283 284 284 285 285 285 285 284 284 284 283 284 284 284 284
251 251 253 255 257 260 263 267 270 274 279 285 290 295 300 305 307 305 301 296 292 288 285 282 281 281 281 282 283 284 285 285 285 285 285 284 283 283 283 283 283 283
249 249 251 253 256 259 262 264 265 269 275 281 287 291 297 301 304 305 303 298 293 289 286 284 282 282 281 281 283 284 285 286 286 286 285 285 284 284 283 282 282 283
248 249 251 253 255 257 259 259 261 266 272 278 283 287 292 297 301 304 305 301 295 290 286 285 284 284 283 283 285 286 287 288 288 287 287 286 286 285 285 284 284 284
249 250 251 253 254 255 255 256 259 264 270 275 280 284 288 293 298 302 305 302 296 290 287 286 286 286 285 286 287 288 290 291 291 291 290 289 288 287 286 286 285 286
249 249 250 251 252 253 254 255 258 263 268 273 276 281 285 290 295 300 303 302 296 290 287 287 287 287 286 287 288 289 291 293 293 294 293 293 292 290 289 288 287 287
249 249 249 250 250 251 252 254 257 261 265 270 274 278 283 287 291 297 301 300 295 289 286 286 286 285 286 287 289 292 293 295 295 296 295 296 295 294 293 291 289 289
250 249 248 248 249 249 251 252 255 259 263 266 271 276 279 283 288 293 297 297 294 289 285 284 284 284 285 286 290 294 295 295 296 295 295 296 296 296 295 293 292 291
250 248 246 246 246 247 249 251 254 257 259 264 269 273 276 280 285 289 292 293 291 288 284 282 283 283 283 286 290 293 294 294 294 294 294 295 296 295 294 293 292 291
249 247 245 244 245 246 248 250 253 254 257 261 266 270 273 278 281 284 288 290 289 286 282 281 281 282 283 285 289 291 292 292 291 291 292 293 294 294 293 293 292 291
248 247 244 243 244 246 247 250 251 252 255 259 263 268 271 274 277 281 284 287 287 285 282 280 281 281 282 284 287 288 289 289 289 289 291 292 292 292 292 292 292 291
248 246 244 243 244 245 247 249 250 251 253 257 262 266 269 271 275 278 282 285 286 283 280 279 280 280 281 283 284 286 286 286 287 288 289 290 290 290 291 292 291 290
248 247 245 243 243 245 247 249 249 249 251 256 262 265 267 269 273 277 281 283 282 280 278 278 278 278 279 281 283 284 284 284 285 287 288 289 289 290 292 292 290 288
249 248 245 243 243 244 246 248 247 247 250 255 260 263 265 268 272 276 278 279 278 277 277 277 277 278 279 281 282 283 283 283 284 286 287 287 289 290 291 290 287 284
249 247 244 242 241 242 245 246 245 246 250 254 258 262 264 268 271 274 275 276 275 275 275 276 277 278 279 280 281 281 281 282 283 284 285 287 289 289 288 285 282 280
248 246 243 242 241 242 244 244 243 245 249 253 258 261 263 267 270 272 273 274 273 273 273 275 277 278 279 279 279 279 280 281 282 284 287 289 289 289 288 286 282 280
248 245 243 242 241 242 243 242 242 245 249 254 257 259 262 266 269 270 271 271 271 271 272 274 277 278 277 277 277 278 280 283 286 289 291 291 289 288 287 284 282 282
249 244 242 241 240 240 241 240 242 245 249 253 256 260 264 267 269 270 269 268 268 269 272 275 276 276 274 274 275 276 279 283 286 289 288 285 282 281 280 280 280 282
250 245 242 241 240 240 239 239 242 245 249 254 258 262 266 268 268 267 265 265 267 269 273 274 274 273 272 272 273 275 277 282 286 286 281 277 275 275 275 274 273 273
250 245 243 242 241 240 239 239 242 247 252 257 261 265 267 267 266 264 264 265 268 271 273 272 271 271 270 271 272 275 279 284 285 280 273 270 269 268 269 268 268 270
250 246 244 243 240 238 238 241 246 252 257 262 265 268 268 266 264 264 264 267 269 271 271 270 269 269 270 271 274 278 283 285 279 271 266 264 263 265 267 267 268 269
249 245 242 239 237 238 242 248 254 259 264 267 269 268 265 263 262 263 266 268 270 270 269 268 269 269 270 273 277 281 284 281 274 269 268 267 268 269 269 269 269 269
244 240 238 238 242 247 254 259 264 268 270 270 268 266 263 263 264 266 268 269 269 268 268 269 269 270 272 275 279 283 283 278 274 272 272 271 272 272 272 272 271 271
240 240 243 248 255 260 265 269 272 274 274 271 268 265 264 264 266 267 268 268 268 268 268 269 270 271 273 276 280 282 281 277 274 273 272 273 273 274 274 273 273 272
249 253 257 262 266 270 274 277 278 277 273 269 265 264 264 264 266 267 268 269 269 269 269 270 272 273 276 279 281 281 278 274 273 272 272 273 273 273 272 273 273 272
263 266 270 273 276 279 280 280 277 274 269 265 263 263 264 266 267 269 271 272 272 271 271 271 274 276 278 280 281 279 274 271 270 270 272 273 273 272 272 271 271 271